Corona, CA

9:07 AM PST on December 07, 2016 (GMT -0800)
Corona Municipal

Weather History for KAJO - February, 2014

Change the Weather History Date:

Tuesday, February 25, 2014

  Actual Average (KRAL) Record (KRAL)
Temperature  
Mean Temperature 57 °F 56 °F  
Max Temperature 73 °F 68 °F 94 °F (1921)
Min Temperature 41 °F 45 °F 28 °F (1894)
Degree Days  
Heating Degree Days 8 9  
Month to date heating degree days 240  
Since 1 July heating degree days 1085  
Cooling Degree Days 0 0  
Month to date cooling degree days 0  
Year to date cooling degree days 6  
Growing Degree Days 7 (Base 50)    
Moisture  
Dew Point 46 °F    
Average Humidity 85    
Maximum Humidity 100    
Minimum Humidity 37    
Precipitation  
Precipitation 0.01 in 0.13 in 2.05 in (1969)
Month to date precipitation 2.72  
Year to date precipitation 5.66  
Sea Level Pressure  
Sea Level Pressure 30.00 in    
Wind  
Wind Speed 1 mph (West)    
Max Wind Speed 15 mph    
Max Gust Speed 23 mph    
Visibility 5 miles    
Events Fog    
T = Trace of Precipitation, MM = Missing Value Source: NWS Daily Summary

Daily Weather History Graph

Daily Weather History Graph

Search for Another Location

Airport or City:

Trip Planner

Search our weather history database for the weather conditions in past years. The results will help you decide how hot, cold, wet, or windy it might be!

Date:

Astronomy

Feb. 25, 2014 Rise Set
Actual Time 6:23 AM PST 5:43 PM PST
Civil Twilight 5:58 AM PST 6:08 PM PST
Nautical Twilight 5:29 AM PST 6:37 PM PST
Astronomical Twilight 5:00 AM PST 7:06 PM PST
Moon 3:15 AM PST (2/25) 2:01 PM PST (2/25)
Length of Visible Light 12h 10m
Length of Day
11h 19m
Waning Crescent, 17% of the Moon is Illuminated
Feb 25
Waning Crescent
Mar 1
New
Mar 8
First Quarter
Mar 16
Full
Mar 23
Last Quarter

Hourly Weather History & Observations

Time (PST) Temp. Windchill Dew Point Humidity Pressure Visibility Wind Dir Wind Speed Gust Speed Precip Events Conditions
12:45 AM 46.4 °F - 46.4 °F 100% 30.04 in 1.8 mi Calm Calm - N/A   Clear
12:56 AM 46.9 °F - 46.9 °F 100% 30.03 in 3.0 mi Calm Calm - N/A   Clear
1:03 AM 46.4 °F - 46.4 °F 100% 30.04 in 1.5 mi Calm Calm - N/A   Clear
1:05 AM 46.4 °F - 46.4 °F 100% 30.04 in 0.8 mi Calm Calm - N/A   Clear
1:10 AM 44.6 °F - 44.6 °F 100% 30.04 in 0.2 mi Calm Calm - N/A Fog Fog
1:35 AM 44.6 °F - 44.6 °F 100% 30.03 in 0.8 mi Calm Calm - N/A   Clear
1:44 AM 44.6 °F - 44.6 °F 100% 30.03 in 0.2 mi Calm Calm - N/A Fog Fog
1:56 AM 43.0 °F - 43.0 °F 100% 30.01 in 0.2 mi Calm Calm - N/A Fog Fog
2:17 AM 42.8 °F - 42.8 °F 100% 30.01 in 0.8 mi Calm Calm - N/A   Clear
2:20 AM 42.8 °F - 42.8 °F 100% 30.01 in 1.5 mi Calm Calm - N/A   Clear
2:22 AM 42.8 °F - 42.8 °F 100% 30.01 in 4.0 mi Calm Calm - N/A   Clear
2:48 AM 42.8 °F - 41.0 °F 93% 30.00 in 8.0 mi Calm Calm - N/A   Mostly Cloudy
2:56 AM 41.0 °F - 39.9 °F 96% 29.99 in 6.0 mi Calm Calm - N/A   Scattered Clouds
3:11 AM 42.8 °F - 42.8 °F 100% 30.00 in 1.5 mi Calm Calm - N/A   Mostly Cloudy
3:13 AM 42.8 °F - 42.8 °F 100% 30.00 in 1.2 mi Calm Calm - N/A   Clear
3:20 AM 42.8 °F - 42.8 °F 100% 29.99 in 0.8 mi Calm Calm - N/A   Clear
3:27 AM 41.0 °F - 41.0 °F 100% 29.99 in 0.8 mi Calm Calm - N/A   Mist
3:31 AM 42.8 °F - 42.8 °F 100% 29.99 in 1.2 mi Calm Calm - N/A   Mostly Cloudy
3:33 AM 42.8 °F - 42.8 °F 100% 29.99 in 2.0 mi Calm Calm - N/A   Partly Cloudy
3:40 AM 41.0 °F - 41.0 °F 100% 29.99 in 3.0 mi Calm Calm - N/A   Scattered Clouds
3:45 AM 41.0 °F - 41.0 °F 100% 29.99 in 2.0 mi Calm Calm - N/A   Mostly Cloudy
3:56 AM 41.0 °F - 41.0 °F 100% 29.98 in 5.0 mi Calm Calm - N/A   Scattered Clouds
4:06 AM 42.8 °F - 42.8 °F 100% 29.99 in 5.0 mi Calm Calm - N/A   Mostly Cloudy
4:34 AM 46.4 °F 45.2 °F 44.6 °F 93% 29.99 in 6.0 mi East 3.5 mph - N/A   Mostly Cloudy
4:56 AM 45.9 °F - 43.0 °F 90% 29.99 in 10.0 mi Calm Calm - N/A   Mostly Cloudy
5:56 AM 48.9 °F - 45.9 °F 89% 30.00 in 10.0 mi Calm Calm - N/A   Overcast
6:56 AM 52.9 °F - 48.9 °F 86% 30.01 in 5.0 mi Calm Calm - N/A   Overcast
7:56 AM 54.0 °F - 48.9 °F 83% 30.03 in 4.0 mi Calm Calm - 0.01 in   Haze
8:56 AM 55.9 °F - 48.9 °F 77% 30.05 in 4.0 mi Calm Calm - N/A   Haze
9:56 AM 61.0 °F - 48.9 °F 64% 30.03 in 6.0 mi East 4.6 mph - N/A   Haze
10:56 AM 65.8 °F - 48.9 °F 54% 30.01 in 5.0 mi Calm Calm - N/A   Haze
11:56 AM 68.9 °F - 45.0 °F 42% 29.99 in 9.0 mi Calm Calm - N/A   Clear
12:56 PM 73.9 °F - 45.9 °F 37% 29.96 in 10.0 mi WSW 11.5 mph - N/A   Clear
1:56 PM 72.9 °F - 47.8 °F 41% 29.94 in 10.0 mi West 15.0 mph - N/A   Clear
2:56 PM 72.0 °F - 48.9 °F 44% 29.93 in 10.0 mi West 15.0 mph - N/A   Clear
3:56 PM 68.9 °F - 48.9 °F 49% 29.93 in 10.0 mi West 11.5 mph - N/A   Clear
4:56 PM 63.9 °F - 48.9 °F 58% 29.95 in 10.0 mi West 13.8 mph - N/A   Clear
5:56 PM 59.9 °F - 50.0 °F 70% 29.98 in 10.0 mi West 13.8 mph 23.0 mph N/A   Clear
6:56 PM 59.0 °F - 50.9 °F 74% 30.00 in 10.0 mi West 6.9 mph - N/A   Clear
7:56 PM 57.9 °F - 50.0 °F 75% 30.03 in 9.0 mi West 8.1 mph - N/A   Clear
8:56 PM 56.8 °F - 50.0 °F 78% 30.04 in 10.0 mi West 5.8 mph - N/A   Clear
9:56 PM 55.9 °F - 50.0 °F 80% 30.06 in 10.0 mi Calm Calm - N/A   Clear
10:56 PM 54.9 °F - 50.0 °F 84% 30.05 in 10.0 mi ESE 5.8 mph - N/A   Clear